TimeCST,TemperatureF,Dew PointF,Humidity,Sea Level PressureIn,VisibilityMPH,Wind Direction,Wind SpeedMPH,Gust SpeedMPH,PrecipitationIn,Events,Conditions,WindDirDegrees,DateUTC
12:15 AM,26.6,21.2,80,30.03,10.0,SSE,6.9,-,N/A,,Clear,160,2013-11-03 05:15:00
12:35 AM,26.6,23.0,86,30.03,10.0,SSE,5.8,-,N/A,,Clear,160,2013-11-03 05:35:00
12:55 AM,28.4,21.2,74,30.04,10.0,South,5.8,-,N/A,,Clear,170,2013-11-03 05:55:00
1:15 AM,28.4,23.0,80,30.04,10.0,SSE,6.9,-,N/A,,Clear,160,2013-11-03 06:15:00
1:35 AM,30.2,24.8,80,30.04,10.0,SSE,6.9,-,N/A,,Clear,160,2013-11-03 06:35:00
1:55 AM,30.2,24.8,80,30.05,10.0,SSE,6.9,-,N/A,,Clear,150,2013-11-03 06:55:00
1:15 AM,30.2,24.8,80,30.05,10.0,SE,6.9,-,N/A,,Clear,140,2013-11-03 07:15:00
1:35 AM,30.2,24.8,80,30.05,10.0,SSE,4.6,-,N/A,,Clear,150,2013-11-03 07:35:00
1:55 AM,30.2,24.8,80,30.06,10.0,SSE,4.6,-,N/A,,Clear,150,2013-11-03 07:55:00
2:15 AM,28.4,24.8,86,30.06,10.0,SSE,5.8,-,N/A,,Clear,150,2013-11-03 08:15:00
2:35 AM,30.2,24.8,80,30.06,10.0,SE,5.8,-,N/A,,Clear,140,2013-11-03 08:35:00
2:55 AM,30.2,24.8,80,30.06,10.0,SE,4.6,-,N/A,,Clear,140,2013-11-03 08:55:00
3:15 AM,30.2,24.8,80,30.05,10.0,SSE,4.6,-,N/A,,Clear,150,2013-11-03 09:15:00
3:35 AM,30.2,24.8,80,30.05,10.0,SSE,4.6,-,N/A,,Clear,150,2013-11-03 09:35:00
3:55 AM,30.2,24.8,80,30.04,10.0,SSE,8.1,-,N/A,,Clear,150,2013-11-03 09:55:00
4:15 AM,30.2,24.8,80,30.05,10.0,SSE,6.9,-,N/A,,Clear,150,2013-11-03 10:15:00
4:35 AM,30.2,24.8,80,30.04,10.0,SE,6.9,-,N/A,,Clear,140,2013-11-03 10:35:00
4:55 AM,32.0,26.6,80,30.04,10.0,SE,6.9,-,N/A,,Clear,140,2013-11-03 10:55:00
5:15 AM,32.0,26.6,80,30.04,10.0,SE,6.9,-,N/A,,Clear,140,2013-11-03 11:15:00
5:35 AM,32.0,26.6,80,30.03,10.0,SE,8.1,-,N/A,,Partly Cloudy,140,2013-11-03 11:35:00
5:55 AM,32.0,26.6,80,30.03,10.0,SE,9.2,-,N/A,,Partly Cloudy,140,2013-11-03 11:55:00
6:15 AM,32.0,26.6,80,30.02,10.0,SE,10.4,-,N/A,,Scattered Clouds,140,2013-11-03 12:15:00
6:35 AM,32.0,26.6,80,30.03,10.0,SE,8.1,-,N/A,,Partly Cloudy,140,2013-11-03 12:35:00
6:55 AM,32.0,26.6,80,30.03,10.0,SE,6.9,-,N/A,,Clear,130,2013-11-03 12:55:00
7:15 AM,32.0,26.6,80,30.03,10.0,SE,9.2,-,N/A,,Clear,140,2013-11-03 13:15:00
7:35 AM,32.0,26.6,80,30.03,10.0,SE,6.9,-,N/A,,Clear,130,2013-11-03 13:35:00
7:55 AM,33.8,26.6,75,30.03,10.0,SE,9.2,-,N/A,,Clear,140,2013-11-03 13:55:00
8:15 AM,33.8,26.6,75,30.03,10.0,SE,8.1,-,N/A,,Clear,130,2013-11-03 14:15:00
8:35 AM,33.8,26.6,75,30.03,10.0,SE,9.2,-,N/A,,Clear,130,2013-11-03 14:35:00
8:55 AM,35.6,26.6,70,30.02,10.0,SE,10.4,-,N/A,,Clear,140,2013-11-03 14:55:00
9:15 AM,37.4,28.4,70,30.01,10.0,SE,10.4,18.4,N/A,,Clear,140,2013-11-03 15:15:00
9:35 AM,37.4,28.4,70,30.01,10.0,SSE,12.7,18.4,N/A,,Scattered Clouds,150,2013-11-03 15:35:00
9:55 AM,39.2,28.4,65,30.00,10.0,SE,13.8,21.9,N/A,,Scattered Clouds,140,2013-11-03 15:55:00
10:15 AM,42.8,30.2,61,30.00,10.0,SE,11.5,20.7,N/A,,Clear,140,2013-11-03 16:15:00
10:35 AM,44.6,30.2,57,29.99,10.0,SE,13.8,20.7,N/A,,Clear,140,2013-11-03 16:35:00
10:55 AM,44.6,30.2,57,29.99,10.0,SE,15.0,26.5,N/A,,Scattered Clouds,140,2013-11-03 16:55:00
11:15 AM,44.6,30.2,57,29.98,10.0,SE,15.0,24.2,N/A,,Overcast,140,2013-11-03 17:15:00
11:35 AM,44.6,28.4,53,29.97,10.0,SSE,17.3,25.3,N/A,,Overcast,150,2013-11-03 17:35:00
11:55 AM,44.6,30.2,57,29.96,10.0,SSE,15.0,23.0,N/A,,Overcast,150,2013-11-03 17:55:00
12:15 PM,44.6,30.2,57,29.95,10.0,SSE,11.5,24.2,N/A,,Overcast,150,2013-11-03 18:15:00
12:35 PM,44.6,30.2,57,29.94,10.0,SE,16.1,24.2,N/A,,Overcast,140,2013-11-03 18:35:00
12:55 PM,44.6,30.2,57,29.92,10.0,SE,12.7,23.0,N/A,,Overcast,140,2013-11-03 18:55:00
1:15 PM,46.4,30.2,53,29.91,10.0,SSE,16.1,21.9,N/A,,Overcast,150,2013-11-03 19:15:00
1:35 PM,46.4,30.2,53,29.90,10.0,SE,19.6,23.0,N/A,,Mostly Cloudy,140,2013-11-03 19:35:00
1:55 PM,46.4,30.2,53,29.89,10.0,SE,16.1,33.4,N/A,,Partly Cloudy,140,2013-11-03 19:55:00
2:15 PM,46.4,30.2,53,29.89,10.0,SE,16.1,21.9,N/A,,Clear,140,2013-11-03 20:15:00
2:35 PM,46.4,30.2,53,29.88,10.0,ESE,12.7,25.3,N/A,,Clear,120,2013-11-03 20:35:00
2:55 PM,48.2,30.2,50,29.87,10.0,SE,17.3,27.6,N/A,,Clear,130,2013-11-03 20:55:00
3:15 PM,46.4,30.2,53,29.86,10.0,SE,16.1,25.3,N/A,,Clear,130,2013-11-03 21:15:00
3:35 PM,46.4,30.2,53,29.86,10.0,SE,17.3,29.9,N/A,,Clear,140,2013-11-03 21:35:00
3:55 PM,46.4,30.2,53,29.87,10.0,SE,12.7,25.3,N/A,,Clear,140,2013-11-03 21:55:00
4:15 PM,46.4,30.2,53,29.86,10.0,SSE,15.0,21.9,N/A,,Clear,150,2013-11-03 22:15:00
4:35 PM,46.4,30.2,53,29.86,10.0,SE,13.8,21.9,N/A,,Clear,130,2013-11-03 22:35:00
4:55 PM,46.4,30.2,53,29.86,10.0,SSE,16.1,23.0,N/A,,Clear,150,2013-11-03 22:55:00
5:15 PM,44.6,30.2,57,29.87,10.0,SE,13.8,26.5,N/A,,Clear,140,2013-11-03 23:15:00
5:35 PM,44.6,30.2,57,29.87,10.0,SE,10.4,21.9,N/A,,Clear,130,2013-11-03 23:35:00
5:55 PM,44.6,30.2,57,29.87,10.0,ESE,9.2,20.7,N/A,,Clear,120,2013-11-03 23:55:00
6:15 PM,44.6,30.2,57,29.87,10.0,SE,10.4,19.6,N/A,,Clear,140,2013-11-04 00:15:00
6:35 PM,44.6,30.2,57,29.87,10.0,SE,11.5,18.4,N/A,,Clear,130,2013-11-04 00:35:00
6:55 PM,44.6,30.2,57,29.87,10.0,SE,15.0,23.0,N/A,,Clear,140,2013-11-04 00:55:00
7:15 PM,44.6,30.2,57,29.86,10.0,SE,13.8,21.9,N/A,,Clear,140,2013-11-04 01:15:00
7:35 PM,44.6,30.2,57,29.87,10.0,SE,15.0,20.7,N/A,,Clear,140,2013-11-04 01:35:00
7:55 PM,44.6,28.4,53,29.86,10.0,SE,12.7,21.9,N/A,,Clear,140,2013-11-04 01:55:00
8:15 PM,44.6,30.2,57,29.86,10.0,SE,13.8,24.2,N/A,,Clear,140,2013-11-04 02:15:00
8:35 PM,44.6,28.4,53,29.86,10.0,SE,13.8,21.9,N/A,,Partly Cloudy,140,2013-11-04 02:35:00
8:55 PM,42.8,28.4,57,29.87,10.0,SE,10.4,-,N/A,,Mostly Cloudy,140,2013-11-04 02:55:00
9:15 PM,42.8,28.4,57,29.86,10.0,SE,11.5,17.3,N/A,,Overcast,140,2013-11-04 03:15:00
9:35 PM,42.8,28.4,57,29.87,10.0,SE,11.5,19.6,N/A,,Overcast,140,2013-11-04 03:35:00
9:55 PM,42.8,28.4,57,29.87,10.0,SE,12.7,17.3,N/A,,Overcast,130,2013-11-04 03:55:00
10:15 PM,42.8,28.4,57,29.87,10.0,SSE,12.7,19.6,N/A,,Overcast,150,2013-11-04 04:15:00
10:35 PM,42.8,28.4,57,29.86,10.0,SSE,12.7,21.9,N/A,,Overcast,150,2013-11-04 04:35:00
10:55 PM,42.8,28.4,57,29.86,10.0,SE,13.8,21.9,N/A,,Overcast,140,2013-11-04 04:55:00